Date,TemperatureHighF,TemperatureAvgF,TemperatureLowF,DewpointHighF,DewpointAvgF,DewpointLowF,HumidityHigh,HumidityAvg,HumidityLow,PressureMaxIn,PressureMinIn,WindSpeedMaxMPH,WindSpeedAvgMPH,GustSpeedMaxMPH,PrecipitationSumIn
2013-2-1,34,23,15,27,13,0,88,65,42,30.19,29.88,31,2,31,0.00
2013-2-2,35,26,16,29,20,8,93,80,51,30.18,29.94,13,1,13,0.01
2013-2-3,36,30,22,28,24,18,89,78,65,29.98,29.86,19,2,20,0.05
2013-2-4,42,31,18,31,23,15,88,74,54,30.02,29.91,11,1,11,0.12
2013-2-5,44,38,33,36,31,23,85,73,60,29.99,29.88,15,2,15,0.03
2013-2-6,48,38,32,34,30,25,89,73,43,30.16,29.98,9,2,9,0.00
2013-2-7,41,38,36,37,32,26,95,81,60,30.16,29.94,4,0,4,0.37
2013-2-8,45,38,29,42,35,24,96,87,56,30.10,29.87,12,1,12,0.02
2013-2-9,46,34,23,26,22,10,92,64,27,30.23,30.08,8,2,8,0.00
2013-2-10,49,42,35,45,29,16,94,65,28,30.24,30.05,19,2,19,0.94
2013-2-11,52,46,38,50,41,28,96,84,53,30.09,30.00,17,1,17,0.45
2013-2-12,47,38,32,35,29,24,94,71,42,30.09,29.86,9,1,9,0.32
2013-2-13,47,38,29,43,35,27,96,88,73,29.86,29.65,22,2,22,0.32
2013-2-14,43,33,26,32,28,23,91,80,55,30.00,29.86,10,2,10,0.00
2013-2-15,47,37,29,35,29,26,91,76,52,30.04,29.93,14,2,14,0.00
2013-2-16,29,24,17,26,18,6,92,79,59,29.95,29.80,17,2,17,0.00
2013-2-17,28,20,14,15,8,3,76,58,37,30.12,29.91,24,3,24,0.00
2013-2-18,45,32,21,32,22,14,82,69,51,30.20,30.04,13,2,15,0.14
2013-2-19,40,34,26,35,27,15,93,76,57,30.05,29.86,23,2,23,0.37
2013-2-20,41,29,20,23,15,9,76,58,32,30.07,29.99,7,1,7,0.01
2013-2-21,51,34,23,35,24,16,94,69,40,30.11,30.00,9,1,9,0.65
2013-2-22,49,41,34,46,38,32,95,92,86,30.14,29.98,11,1,11,0.59
2013-2-23,54,46,39,50,44,32,96,90,75,30.00,29.82,14,1,14,0.32
2013-2-24,49,38,31,34,30,25,93,75,44,30.02,29.86,7,2,7,0.00
2013-2-25,44,36,30,33,28,24,86,72,56,30.03,29.89,7,1,7,0.00
2013-2-26,49,39,33,45,36,29,98,88,75,29.89,29.53,27,2,28,1.04
2013-2-27,46,38,31,34,29,25,89,72,52,29.76,29.63,17,3,17,0.00
2013-2-28,34,30,27,27,23,21,81,75,67,29.85,29.69,13,3,13,0.01